Syracuse, NY

8:39 PM EST on December 14, 2017 (GMT -0500)
Syracuse Hancock International

Weather History for KSYR - April, 2012

Change the Weather History Date:

Tuesday, April 10, 2012

  Actual Average Record
Temperature  
Mean Temperature 45 °F 45 °F  
Max Temperature 52 °F 55 °F 82 °F (1945)
Min Temperature 37 °F 35 °F 18 °F (1995)
Degree Days  
Heating Degree Days 20 20  
Month to date heating degree days 228 223  
Since 1 July heating degree days 4662 6011  
Cooling Degree Days 0 0  
Month to date cooling degree days 0 0  
Year to date cooling degree days 1 0  
Moisture  
Dew Point 31 °F    
Average Humidity 65    
Maximum Humidity 85    
Minimum Humidity 45    
Precipitation  
Precipitation 0.04 in 0.11 in 1.51 in (1993)
Month to date precipitation 0.19 1.12  
Year to date precipitation 7.44 8.64  
Snow  
Snow 0.00 in 0.20 in 3.90 in (1973)
Month to date snowfall 0.0 2.0  
Since 1 July snowfall 50.6 121.9  
Snow Depth 0.00 in    
Sea Level Pressure  
Sea Level Pressure 29.71 in    
Wind  
Wind Speed 13 mph (WNW)    
Max Wind Speed 24 mph    
Max Gust Speed 32 mph    
Visibility 10 miles    
Events Rain    
T = Trace of Precipitation, MM = Missing Value Source: NWS Daily Summary

Daily Weather History Graph

Daily Weather History Graph

Search for Another Location

Airport or City:

Trip Planner

Search our weather history database for the weather conditions in past years. The results will help you decide how hot, cold, wet, or windy it might be!

Date:

Astronomy

Apr. 10, 2012 Rise Set
Actual Time 6:30 AM EDT 7:41 PM EDT
Civil Twilight 6:00 AM EDT 8:11 PM EDT
Nautical Twilight 5:25 AM EDT 8:46 PM EDT
Astronomical Twilight 4:48 AM EDT 9:23 PM EDT
Moon No Moon Rise 9:06 AM EDT (4/10)
Length of Visible Light 14h 10m
Length of Day
13h 11m
Waning Gibbous, 79% of the Moon is Illuminated
Apr 10
Waning Gibbous
Apr 13
Last Quarter
Apr 21
New
Apr 29
First Quarter
May 5
Full

Hourly Weather History & Observations

Time (EDT) Temp. Windchill Dew Point Humidity Pressure Visibility Wind Dir Wind Speed Gust Speed Precip Events Conditions
1:54 AM 45.0 °F 38.5 °F 25.0 °F 46% 29.63 in 10.0 mi West 13.8 mph - N/A   Mostly Cloudy
2:54 AM 45.0 °F 39.3 °F 24.1 °F 44% 29.62 in 10.0 mi West 11.5 mph - N/A   Mostly Cloudy
3:54 AM 44.1 °F 38.1 °F 24.1 °F 45% 29.61 in 10.0 mi West 11.5 mph - N/A   Mostly Cloudy
4:54 AM 42.1 °F 36.1 °F 24.1 °F 49% 29.61 in 10.0 mi West 10.4 mph - N/A   Mostly Cloudy
5:54 AM 41.0 °F 34.3 °F 24.1 °F 51% 29.61 in 10.0 mi West 11.5 mph - N/A   Mostly Cloudy
6:54 AM 41.0 °F 33.5 °F 24.1 °F 51% 29.62 in 10.0 mi West 13.8 mph - N/A   Mostly Cloudy
7:54 AM 43.0 °F 36.0 °F 25.0 °F 49% 29.63 in 10.0 mi West 13.8 mph - N/A   Mostly Cloudy
8:54 AM 45.0 °F 37.9 °F 27.0 °F 49% 29.64 in 10.0 mi West 16.1 mph - N/A   Overcast
9:54 AM 48.0 °F - 28.9 °F 48% 29.65 in 10.0 mi WNW 15.0 mph - N/A   Overcast
10:54 AM 48.9 °F - 30.0 °F 48% 29.66 in 10.0 mi NW 15.0 mph - N/A   Overcast
11:54 AM 48.0 °F - 30.0 °F 50% 29.66 in 10.0 mi WNW 12.7 mph 20.7 mph N/A   Overcast
12:54 PM 46.9 °F - 32.0 °F 56% 29.65 in 10.0 mi WNW 11.5 mph 24.2 mph 0.00 in Rain Light Rain
1:54 PM 50.0 °F - 30.9 °F 48% 29.67 in 10.0 mi NW 20.7 mph 29.9 mph 0.00 in   Overcast
2:54 PM 50.0 °F - 30.9 °F 48% 29.68 in 10.0 mi NNW 20.7 mph 28.8 mph N/A   Overcast
3:54 PM 46.9 °F - 30.9 °F 54% 29.70 in 10.0 mi NW 18.4 mph 29.9 mph 0.00 in Rain Light Rain
4:54 PM 46.9 °F - 30.9 °F 54% 29.71 in 10.0 mi NW 15.0 mph 25.3 mph 0.00 in   Overcast
5:54 PM 44.1 °F 38.6 °F 32.0 °F 63% 29.74 in 10.0 mi NW 10.4 mph 20.7 mph 0.00 in   Overcast
6:44 PM 41.0 °F 33.5 °F 35.6 °F 81% 29.77 in 8.0 mi WNW 13.8 mph 19.6 mph 0.01 in Rain Light Rain
6:54 PM 41.0 °F 34.7 °F 36.0 °F 82% 29.77 in 10.0 mi West 10.4 mph - 0.01 in Rain Light Rain
7:03 PM 39.2 °F 32.5 °F 35.6 °F 87% 29.77 in 10.0 mi West 10.4 mph - 0.00 in Rain Light Rain
7:26 PM 39.2 °F 32.5 °F 35.6 °F 87% 29.78 in 7.0 mi West 10.4 mph - 0.02 in Rain Light Rain
7:54 PM 39.0 °F 32.3 °F 36.0 °F 89% 29.78 in 10.0 mi West 10.4 mph - 0.03 in Rain Light Rain
8:29 PM 39.2 °F 33.6 °F 35.6 °F 87% 29.80 in 10.0 mi West 8.1 mph - 0.00 in   Overcast
8:54 PM 39.0 °F 33.4 °F 36.0 °F 89% 29.81 in 10.0 mi West 8.1 mph - 0.00 in Rain Light Rain
9:54 PM 39.0 °F 34.0 °F 36.0 °F 89% 29.81 in 10.0 mi West 6.9 mph - 0.00 in   Overcast
10:14 PM 39.2 °F 33.6 °F 35.6 °F 87% 29.81 in 10.0 mi WSW 8.1 mph - 0.00 in Rain Light Rain
10:54 PM 39.0 °F 33.4 °F 36.0 °F 89% 29.81 in 10.0 mi West 8.1 mph - 0.00 in   Overcast
11:35 PM 37.4 °F 31.4 °F 35.6 °F 93% 29.81 in 10.0 mi WNW 8.1 mph - 0.00 in Rain Light Rain
11:49 PM 39.2 °F 35.0 °F 35.6 °F 87% 29.81 in 10.0 mi West 5.8 mph - 0.00 in Rain Light Rain
11:54 PM 39.0 °F 34.8 °F 36.0 °F 89% 29.81 in 10.0 mi West 5.8 mph - 0.00 in Rain Light Rain